Budapest Bridge — VRIZ5 — position and weather

sailwx.info

Track history (hours):
 
Tides and Currents Weather Stations Pressure Air Temp Water Temp Dewpoint Dewpoint Depression Visibility Wind Speed Wind Dir Waves Ship Positions

Budapest Bridge

Last reported at 2014-Jul-28 17:31 UTC. Time now 2014-Jul-28 18:30 UTC.
Position N 01°17' E 103°46'.

Length 268 m; draft 12.3 m.

Type: Cargo ship. MMSI: 477434200.

Date/timePositionNaut miles runAvg speedWind from/ knotsBaromVisibWave heightAir tempDewpointWater temp
2014-Jul-28 17:31N 01°17' E 103°46'0 0.0
2014-Jul-28 16:31N 01°17' E 103°46'0 0.0
2014-Jul-28 15:31N 01°17' E 103°46'0 0.0
2014-Jul-28 14:31N 01°17' E 103°46'0 0.0
2014-Jul-28 13:31N 01°17' E 103°46'0 0.0
2014-Jul-28 12:31N 01°17' E 103°46'0 0.0
2014-Jul-28 11:31N 01°17' E 103°46'0 0.0
2014-Jul-28 10:31N 01°17' E 103°46'1 0.9
2014-Jul-28 09:33N 01°17' E 103°45'6 5.5
2014-Jul-28 08:32N 01°13' E 103°41'6 0.1
2014-Jul-26 07:09N 01°09' E 103°45'813.4
2014-Jul-26 06:33N 01°13' E 103°52'1614.9
2014-Jul-26 05:29N 01°16' E 104°08'  
2014-Jul-22 14:19N 22°18' E 114°06'1012.1
2014-Jul-22 13:31N 22°21' E 113°56'6 6.8
2014-Jul-22 12:33N 22°27' E 113°54'0 0.1
2014-Jul-22 11:33N 22°27' E 113°54'0 0.0
2014-Jul-22 10:33N 22°27' E 113°54'0 0.0
2014-Jul-22 09:33N 22°27' E 113°54'0 0.0
2014-Jul-22 08:33N 22°27' E 113°54'0 0.0
2014-Jul-22 07:33N 22°27' E 113°54'0 0.0
2014-Jul-22 06:33N 22°27' E 113°54'0 0.0
2014-Jul-22 05:33N 22°27' E 113°54'0 0.0
2014-Jul-22 04:33N 22°27' E 113°54'0 0.0
2014-Jul-22 03:33N 22°27' E 113°54'0 0.0
2014-Jul-22 02:33N 22°27' E 113°54'0 0.0
2014-Jul-22 01:33N 22°27' E 113°54'7 6.4
2014-Jul-22 00:28N 22°21' E 113°57'1110.0
2014-Jul-21 23:20N 22°15' E 114°07'5 5.8
2014-Jul-21 22:27N 22°10' E 114°10'0 0.1
2014-Jul-21 20:32N 22°10' E 114°10'0 0.1
2014-Jul-21 20:02N 22°10' E 114°10'0 0.0
2014-Jul-21 18:26N 22°10' E 114°10'0 0.0
2014-Jul-21 14:20N 22°10' E 114°10'0 0.0
2014-Jul-21 11:26N 22°10' E 114°10'0 0.0
2014-Jul-21 10:26N 22°10' E 114°10'0 0.1
2014-Jul-21 09:32N 22°11' E 114°10'0 0.0
2014-Jul-21 03:32N 22°10' E 114°10'0 0.2
2014-Jul-21 02:33N 22°10' E 114°10'8 7.4
2014-Jul-21 01:25N 22°18' E 114°06'3 0.3
2014-Jul-20 14:16N 22°20' E 114°07'220 6.2
2014-Jul-19 02:33N 23°35' E 117°52'1212.2
2014-Jul-19 01:33N 23°43' E 118°01'1212.4
2014-Jul-19 00:33N 23°52' E 118°11'1312.8
2014-Jul-18 23:33N 24°01' E 118°21'1010.3
2014-Jul-18 22:33N 24°11' E 118°19'1414.0
2014-Jul-18 21:33N 24°21' E 118°09'9 9.1
2014-Jul-18 20:33N 24°27' E 118°01'0 0.0
2014-Jul-18 19:33N 24°27' E 118°01'0 0.0
2014-Jul-18 18:33N 24°27' E 118°01'0 0.0
2014-Jul-18 17:32N 24°27' E 118°01'  
Track history (hours):
 
Tides and Currents Weather Stations Pressure Air Temp Water Temp Dewpoint Dewpoint Depression Visibility Wind Speed Wind Dir Waves Ship Positions

Budapest Bridge

Last reported at 2014-Jul-28 17:31 UTC. Time now 2014-Jul-28 18:30 UTC.
Position N 01°17' E 103°46'.

Length 268 m; draft 12.3 m.

Type: Cargo ship. MMSI: 477434200.

Date/timePositionNaut miles runAvg speedWind from/ knotsBaromVisibWave heightAir tempDewpointWater temp
2014-Jul-28 17:31N 01°17' E 103°46'0 0.0
2014-Jul-28 16:31N 01°17' E 103°46'0 0.0
2014-Jul-28 15:31N 01°17' E 103°46'0 0.0
2014-Jul-28 14:31N 01°17' E 103°46'0 0.0
2014-Jul-28 13:31N 01°17' E 103°46'0 0.0
2014-Jul-28 12:31N 01°17' E 103°46'0 0.0
2014-Jul-28 11:31N 01°17' E 103°46'0 0.0
2014-Jul-28 10:31N 01°17' E 103°46'1 0.9
2014-Jul-28 09:33N 01°17' E 103°45'6 5.5
2014-Jul-28 08:32N 01°13' E 103°41'6 0.1
2014-Jul-26 07:09N 01°09' E 103°45'813.4
2014-Jul-26 06:33N 01°13' E 103°52'1614.9
2014-Jul-26 05:29N 01°16' E 104°08'  
2014-Jul-22 14:19N 22°18' E 114°06'1012.1
2014-Jul-22 13:31N 22°21' E 113°56'6 6.8
2014-Jul-22 12:33N 22°27' E 113°54'0 0.1
2014-Jul-22 11:33N 22°27' E 113°54'0 0.0
2014-Jul-22 10:33N 22°27' E 113°54'0 0.0
2014-Jul-22 09:33N 22°27' E 113°54'0 0.0
2014-Jul-22 08:33N 22°27' E 113°54'0 0.0
2014-Jul-22 07:33N 22°27' E 113°54'0 0.0
2014-Jul-22 06:33N 22°27' E 113°54'0 0.0
2014-Jul-22 05:33N 22°27' E 113°54'0 0.0
2014-Jul-22 04:33N 22°27' E 113°54'0 0.0
2014-Jul-22 03:33N 22°27' E 113°54'0 0.0
2014-Jul-22 02:33N 22°27' E 113°54'0 0.0
2014-Jul-22 01:33N 22°27' E 113°54'7 6.4
2014-Jul-22 00:28N 22°21' E 113°57'1110.0
2014-Jul-21 23:20N 22°15' E 114°07'5 5.8
2014-Jul-21 22:27N 22°10' E 114°10'0 0.1
2014-Jul-21 20:32N 22°10' E 114°10'0 0.1
2014-Jul-21 20:02N 22°10' E 114°10'0 0.0
2014-Jul-21 18:26N 22°10' E 114°10'0 0.0
2014-Jul-21 14:20N 22°10' E 114°10'0 0.0
2014-Jul-21 11:26N 22°10' E 114°10'0 0.0
2014-Jul-21 10:26N 22°10' E 114°10'0 0.1
2014-Jul-21 09:32N 22°11' E 114°10'0 0.0
2014-Jul-21 03:32N 22°10' E 114°10'0 0.2
2014-Jul-21 02:33N 22°10' E 114°10'8 7.4
2014-Jul-21 01:25N 22°18' E 114°06'3 0.3
2014-Jul-20 14:16N 22°20' E 114°07'220 6.2
2014-Jul-19 02:33N 23°35' E 117°52'1212.2
2014-Jul-19 01:33N 23°43' E 118°01'1212.4
2014-Jul-19 00:33N 23°52' E 118°11'1312.8
2014-Jul-18 23:33N 24°01' E 118°21'1010.3
2014-Jul-18 22:33N 24°11' E 118°19'1414.0
2014-Jul-18 21:33N 24°21' E 118°09'9 9.1
2014-Jul-18 20:33N 24°27' E 118°01'0 0.0
2014-Jul-18 19:33N 24°27' E 118°01'0 0.0
2014-Jul-18 18:33N 24°27' E 118°01'0 0.0
2014-Jul-18 17:32N 24°27' E 118°01'  

Dump ship's entire track history